Weather History for Champaign, IL

Change the Weather History Date:

Monday, February 17, 2014

  Actual Average Record
Temperature  
Mean Temperature 26 °F 30 °F  
Max Temperature 37 °F 38 °F 63 °F (2011)
Min Temperature 14 °F 22 °F 5 °F (2007)
Degree Days  
Heating Degree Days 39 35  
Month to date heating degree days 885 633  
Since 1 July heating degree days 4665 4143  
Cooling Degree Days 0 0  
Month to date cooling degree days 0 0  
Year to date cooling degree days 0 0  
Moisture  
Dew Point 25 °F    
Average Humidity 84    
Maximum Humidity 92    
Minimum Humidity 75    
Precipitation  
Precipitation 0.25 in 0.06 in 0.71 in (2008)
Month to date precipitation 1.08 1.23  
Year to date precipitation 1.79 3.28  
Sea Level Pressure  
Sea Level Pressure 29.89 in    
Wind  
Wind Speed 20 mph (SSE)    
Max Wind Speed 32 mph    
Max Gust Speed 38 mph    
Visibility 3 miles    
Events Fog , Rain , Snow , Thunderstorm    
T = Trace of Precipitation, MM = Missing Value Source: NWS Daily Summary

Daily Weather History Graph

Daily Weather History Graph

Search for Another Location

Airport:

Trip Planner

Search our weather history database for the weather conditions in past years. The results will help you decide how hot, cold, wet, or windy it might be!

Date:

Astronomy

Feb. 17, 2014 Rise Set
Actual Time 6:43 AM CST 5:31 PM CST
Civil Twilight 6:15 AM CST 5:59 PM CST
Nautical Twilight 5:44 AM CST 6:30 PM CST
Astronomical Twilight 5:12 AM CST 7:02 PM CST
Moon 8:25 PM CST (2/17) 7:43 AM CST (2/17)
Length of Visible Light 11h 43m
Length of Day
10h 47m
Waning Gibbous, 93% of the Moon is Illuminated
Feb 17
Waning Gibbous
Feb 22
Last Quarter
Mar 1
New
Mar 8
First Quarter
Mar 16
Full

Hourly Weather History & Observations

Time (CST) Temp. Windchill Dew Point Humidity Pressure Visibility Wind Dir Wind Speed Gust Speed Precip Events Conditions
12:53 AM 16.0 °F 3.6 °F 12.9 °F 88% 30.25 in 5.0 mi East 10.4 mph - N/A   Mostly Cloudy
1:53 AM 19.9 °F 6.2 °F 15.1 °F 81% 30.22 in 6.0 mi East 15.0 mph - N/A   Haze
2:53 AM 19.9 °F 6.7 °F 16.0 °F 85% 30.20 in 6.0 mi ESE 13.8 mph - N/A   Overcast
3:53 AM 21.0 °F 6.2 °F 16.0 °F 81% 30.17 in 7.0 mi ESE 18.4 mph - N/A   Overcast
4:53 AM 21.9 °F 8.7 °F 17.1 °F 82% 30.18 in 7.0 mi SE 15.0 mph - N/A   Mostly Cloudy
5:53 AM 21.9 °F 6.2 °F 17.1 °F 82% 30.11 in 7.0 mi ESE 21.9 mph - N/A   Partly Cloudy
6:53 AM 21.9 °F 6.2 °F 18.0 °F 85% 30.07 in 6.0 mi East 21.9 mph - N/A   Mostly Cloudy
7:53 AM 23.0 °F 9.2 °F 19.0 °F 85% 30.07 in 6.0 mi ESE 17.3 mph - N/A   Overcast
8:53 AM 24.1 °F 11.0 °F 19.0 °F 81% 30.07 in 6.0 mi ESE 16.1 mph - N/A   Haze
9:21 AM 24.8 °F 11.1 °F 19.4 °F 80% 29.99 in 1.8 mi ESE 18.4 mph - 0.00 in Snow Light Snow
9:25 AM 24.8 °F 11.5 °F 19.4 °F 80% 29.99 in 0.8 mi ESE 17.3 mph - 0.01 in Snow Light Snow
9:30 AM 24.8 °F 11.1 °F 19.4 °F 80% 29.99 in 0.2 mi ESE 18.4 mph - 0.03 in Fog , Snow , Thunderstorm Thunderstorms and Snow
9:37 AM 24.8 °F 11.1 °F 19.4 °F 80% 29.98 in 0.5 mi East 18.4 mph - 0.04 in Fog , Snow , Thunderstorm Thunderstorms and Snow
9:45 AM 24.8 °F 11.1 °F 19.4 °F 80% 29.99 in 0.5 mi ESE 18.4 mph - 0.05 in Fog , Snow , Thunderstorm Thunderstorms and Snow
9:53 AM 24.1 °F 9.8 °F 19.9 °F 84% 30.02 in 0.5 mi ESE 19.6 mph - 0.06 in Snow , Thunderstorm Light Snow
10:04 AM 24.8 °F 10.3 °F 21.2 °F 86% 29.96 in 0.5 mi ESE 20.7 mph - 0.01 in Snow , Thunderstorm Light Snow
10:18 AM 24.8 °F 10.0 °F 21.2 °F 86% 29.93 in 0.5 mi ESE 21.9 mph - 0.03 in Rain , Snow Light Freezing Rain
10:53 AM 26.1 °F 9.8 °F 23.0 °F 88% 29.88 in 0.8 mi ESE 28.8 mph - 0.05 in Rain , Snow Light Freezing Rain
10:55 AM 26.6 °F 9.8 °F 23.0 °F 86% 29.84 in 2.0 mi ESE 32.2 mph 36.8 mph 0.00 in Rain , Snow Light Freezing Rain
11:07 AM 26.6 °F 10.6 °F 24.8 °F 93% 29.83 in 1.2 mi East 28.8 mph - N/A Rain , Snow Light Freezing Rain
11:32 AM 28.4 °F 14.1 °F 26.6 °F 93% 29.80 in 2.0 mi East 24.2 mph 31.1 mph N/A Snow Light Snow
11:41 AM 28.4 °F 13.3 °F 26.6 °F 93% 29.80 in 1.5 mi ESE 27.6 mph 32.2 mph N/A Rain Light Freezing Rain
11:53 AM 28.9 °F 14.5 °F 27.0 °F 92% 29.82 in 1.2 mi ESE 25.3 mph 36.8 mph N/A Rain Light Freezing Rain
12:25 PM 30.2 °F 15.9 °F 26.6 °F 86% 29.75 in 2.0 mi ESE 26.5 mph 33.4 mph 0.06 in   Overcast
12:38 PM 30.2 °F 17.4 °F 26.6 °F 86% 29.76 in 2.5 mi SE 20.7 mph - 0.07 in   Ice Pellets
12:53 PM 30.0 °F 16.6 °F 27.0 °F 88% 29.78 in 3.0 mi SE 23.0 mph 31.1 mph 0.08 in   Ice Pellets
1:09 PM 30.2 °F 17.1 °F 26.6 °F 86% 29.74 in 2.0 mi SE 21.9 mph 26.5 mph 0.00 in   Ice Pellets
1:13 PM 30.2 °F 17.4 °F 26.6 °F 86% 29.74 in 1.8 mi SE 20.7 mph - 0.00 in   Ice Pellets
1:31 PM 30.2 °F 17.4 °F 28.4 °F 93% 29.73 in 1.8 mi SE 20.7 mph - 0.01 in Snow Snow
1:53 PM 30.9 °F 21.7 °F 28.9 °F 92% 29.75 in 1.8 mi SSE 11.5 mph - 0.02 in Snow Snow
2:22 PM 30.2 °F 20.8 °F 28.4 °F 93% 29.71 in 1.0 mi South 11.5 mph - 0.02 in Snow Light Snow
2:32 PM 30.2 °F 20.8 °F 28.4 °F 93% 29.71 in 0.8 mi South 11.5 mph - 0.02 in Snow Light Snow
2:51 PM 30.2 °F 19.8 °F 28.4 °F 93% 29.72 in 0.2 mi SSW 13.8 mph - 0.03 in Fog , Snow Snow
2:53 PM 30.9 °F 21.7 °F 28.9 °F 92% 29.75 in 0.2 mi SSW 11.5 mph - 0.04 in Fog , Snow Snow
3:07 PM 32.0 °F 22.1 °F 30.2 °F 93% 29.72 in 0.8 mi SW 13.8 mph - 0.00 in Snow Light Snow
3:15 PM 32.0 °F 21.2 °F 30.2 °F 93% 29.72 in 1.0 mi SW 16.1 mph 21.9 mph 0.00 in Snow Light Snow
3:32 PM 32.0 °F 21.2 °F 30.2 °F 93% 29.72 in 2.0 mi SW 16.1 mph - 0.00 in Snow Light Snow
3:53 PM 33.1 °F 21.2 °F 30.0 °F 89% 29.75 in 2.5 mi WSW 20.7 mph 27.6 mph 0.00 in   Overcast
4:04 PM 33.8 °F 21.9 °F 30.2 °F 87% 29.73 in 3.0 mi West 21.9 mph - N/A   Overcast
4:33 PM 33.8 °F 21.0 °F 30.2 °F 87% 29.74 in 1.8 mi West 25.3 mph 33.4 mph 0.00 in   Overcast
4:53 PM 32.0 °F 18.4 °F 28.9 °F 88% 29.79 in 1.0 mi West 26.5 mph 35.7 mph 0.00 in   Overcast
5:20 PM 33.8 °F 20.8 °F 28.4 °F 81% 29.78 in 3.0 mi West 26.5 mph 32.2 mph 0.00 in Snow Light Snow
5:53 PM 33.1 °F 20.1 °F 30.0 °F 89% 29.83 in 6.0 mi West 25.3 mph 35.7 mph 0.00 in   Overcast
6:53 PM 34.0 °F 22.7 °F 30.9 °F 89% 29.86 in 6.0 mi West 19.6 mph - 0.00 in   Overcast
7:46 PM 33.8 °F 23.5 °F 30.2 °F 87% 29.85 in 5.0 mi WSW 16.1 mph - N/A   Partly Cloudy
7:53 PM 32.0 °F 22.1 °F 30.0 °F 92% 29.88 in 4.0 mi WSW 13.8 mph - N/A   Partly Cloudy
8:53 PM 35.1 °F 24.5 °F 30.0 °F 82% 29.89 in 8.0 mi WSW 18.4 mph - N/A   Clear
9:53 PM 36.0 °F 24.7 °F 30.0 °F 79% 29.90 in 10.0 mi West 21.9 mph - N/A   Clear
10:53 PM 36.0 °F 25.0 °F 28.9 °F 76% 29.92 in 10.0 mi West 20.7 mph - N/A   Clear
11:53 PM 35.1 °F 25.2 °F 28.0 °F 76% 29.93 in 10.0 mi West 16.1 mph - N/A   Clear